[Iaude] MPEC T75: 2016 TN11 [a=1.67,e=0.41,i=17.1,H=23.6]

mpec at si.edu mpec at si.edu
Sat Oct 8 10:49:36 EDT 2016


M.P.E.C. 2016-T75                                Issued 2016 Oct. 8, 14:45 UT
 
     The Minor Planet Electronic Circulars contain information on unusual
         minor planets and routine data on comets.  They are published
    on behalf of Division F of the International Astronomical Union by the
          Minor Planet Center, Smithsonian Astrophysical Observatory,
                          Cambridge, MA 02138, U.S.A.

             Prepared using the Tamkin Foundation Computer Network

                              MPC at CFA.HARVARD.EDU
            URL http://www.minorplanetcenter.net/    ISSN 1523-6714


                                   2016 TN11
 
Observations:
     K16T11N* C2016 10 05.47210 02 47 24.03 +14 34 47.4          20.3 VqET075G96
     K16T11N  C2016 10 05.47457 02 47 23.93 +14 34 24.6          20.4 VqET075G96
     K16T11N  C2016 10 05.47709 02 47 23.96 +14 34 02.1          20.2 VqET075G96
     K16T11N  C2016 10 05.47962 02 47 23.87 +14 33 39.4          20.3 VqET075G96
     K16T11N  C2016 10 05.50396 02 47 23.46 +14 30 02.2          20.7 VqET075G96
     K16T11N  C2016 10 05.50437 02 47 23.47 +14 29 57.7          20.6 VqET075G96
     K16T11N  C2016 10 05.50478 02 47 23.47 +14 29 53.6          20.4 VqET075G96
     K16T11N  C2016 10 05.50519 02 47 23.44 +14 29 50.6          20.4 VqET075G96
     K16T11N  C2016 10 05.51394 02 47 23.25 +14 28 32.2          20.7 VqET075G96
     K16T11N  C2016 10 05.51424 02 47 23.29 +14 28 29.4          21.1 VqET075G96
     K16T11N  C2016 10 05.51453 02 47 23.29 +14 28 26.5          20.8 VqET075G96
     K16T11N  C2016 10 05.51483 02 47 23.29 +14 28 23.6          20.1 VqET075G96
     K16T11N  C2016 10 06.25220 02 47 29.09 +12 41 28.3          20.6 RoET075926
     K16T11N  C2016 10 06.25505 02 47 29.06 +12 41 04.4          20.6 RoET075926
     K16T11N  C2016 10 06.25789 02 47 28.99 +12 40 40.2          20.4 RoET075926
     K16T11N KC2016 10 06.33915 02 47 25.64 +12 29 04.6          20.6 VqET075H21
     K16T11N KC2016 10 06.34568 02 47 25.50 +12 28 09.5          20.7 VqET075H21
     K16T11N KC2016 10 06.35219 02 47 25.35 +12 27 14.4                qET075H21
     K16T11N KC2016 10 07.24520402 47 24.17 +10 24 33.5          20.4 VuET075H21
     K16T11N KC2016 10 07.25356502 47 23.95 +10 23 27.0          20.6 VuET075H21
     K16T11N KC2016 10 07.26343702 47 23.71 +10 22 08.0          20.7 VuET075H21
 
Observer details:
926 Tenagra II Observatory.  Observers M. Schwartz, P. R. Holvorcem.  Measurer
    M. Schwartz.  0.81-m f/7 Ritchey-Chretien + CCD.
G96 Mt. Lemmon Survey.  Observer R. G. Matheny.  Measurers E. J. Christensen,
    D. C. Fuls, A. R. Gibbs, A. D. Grauer, J. A. Johnson, R. A. Kowalski,
    S. M. Larson, G. J. Leonard, R. G. Matheny, R. L. Seaman, F. C. Shelly.
    1.5-m reflector + 10K CCD.
H21 Astronomical Research Observatory, Westfield.  Observer R. Holmes.
    Measurers S. Foglia, L. Buzzi, T. Linder, R. Holmes, T. Vorobjov.  0.61-m
    f/4.0 astrograph + CCD, 0.61-m f/4.5 astrograph + CCD.
 
Orbital elements:
2016 TN11                                                Earth MOID = 0.0811 AU
Epoch 2016 July 31.0 TT = JDT 2457600.5                 MPC
M 351.24677              (2000.0)            P               Q
n   0.45501363     Peri.  128.59417     +0.79895848     +0.59638174
a   1.6741195      Node   195.30970     -0.60128744     +0.78984694
e   0.4106464      Incl.   17.05113     -0.01089770     +0.14307562
P   2.17           H   23.6           G   0.15           U   6
Residuals in seconds of arc
161005 G96  0.1-  0.5+    161005 G96  0.0   0.2+    161006 926  0.1-  0.0
161005 G96  0.8-  0.2-    161005 G96  0.7-  0.2+    161006 H21  0.1+  0.3-
161005 G96  0.3+  0.1-    161005 G96  0.0   0.0     161006 H21  0.3+  0.0
161005 G96  0.3-  0.1-    161005 G96  0.0   0.3-    161006 H21  0.4+  0.1+
161005 G96  0.0   0.8+    161005 G96  0.1+  0.5-    161007 H21  0.1-  0.2-
161005 G96  0.3+  0.1-    161006 926  0.2-  0.0     161007 H21  0.3-  0.2+
161005 G96  0.4+  0.5-    161006 926  0.1+  0.2+    161007 H21  0.1-  0.1+

Ephemeris:
2016 TN11                a,e,i = 1.67, 0.41, 17                  q = 0.9866
Date    TT    R. A. (2000) Decl.     Delta      r     Elong.  Phase     V
2016 09 08    19 09 10.9 +84 45 45   0.1475  1.0105    87.0    84.6    22.4
...
2016 09 23    02 35 59.6 +53 38 29   0.1073  1.0573   117.6    57.3    20.9
...
2016 10 01    02 46 22.1 +27 01 40   0.1140  1.0904   139.5    36.6    20.6
...
2016 10 07    02 47 23.9 +10 58 13   0.1338  1.1181   150.8    25.9    20.7
2016 10 08    02 47 17.5 +08 46 41   0.1381  1.1230   152.0    24.7    20.7
2016 10 09    02 47 07.7 +06 43 13   0.1427  1.1278   153.0    23.7    20.7
...
2016 10 15    02 45 16.2 -03 05 42   0.1741  1.1583   155.9    20.5    21.1
...
2016 10 23    02 41 32.0 -11 03 55   0.2247  1.2013   154.2    21.1    21.8
...
2016 11 07    02 34 54.0 -17 09 33   0.3390  1.2870   146.4    25.2    23.0

A. U. Tomatic                (C) Copyright 2016 MPC           M.P.E.C. 2016-T75




More information about the Iaude mailing list